Location: Braunsdorf
(50.7357°N, 11.9136°E)
Time: 20:42:19
(UTC+00:00)

Cosmos 2123 Rocket - Pass Details

Date: 17 February 2020
Orbit: 961 x 993 km, 82.9° (Epoch: 03 April)

Event Time Altitude Azimuth Distance (km) Brightness Sun altitude
Rises 05:22:51 0° 188° (S) 3,695 7.0 -9.9°
Reaches altitude 10° 05:25:22 10° 188° (S) 2,749 6.4 -9.6°
Maximum altitude 05:31:42 88° 279° (W) 997 4.1 -8.6°
Drops below altitude 10° 05:38:03 10° 10° (N) 2,753 6.4 -7.6°
Sets 05:40:34 0° 10° (N) 3,701 7.0 -7.2°
